This is the latest recevied weather packets stored in our database for station/object KP4FJC. If no packets are shown the sender has not sent any weather packets the latest 10 day(s).
| Time | Temp. | Humidity | Pressure | Rain* | Wind** | Luminosity | Snow |
|---|---|---|---|---|---|---|---|
| 1777561344 | 30° C | 68% | 1014.5 hPa | 0 mm | - | 661 W/m² | - |
| 1777561040 | 30.56° C | 66% | 1014.5 hPa | 0 mm | - | 556 W/m² | - |
| 1777560736 | 30.56° C | 65% | 1014.7 hPa | 0 mm | - | 482 W/m² | - |
| 1777560432 | 30° C | 67% | 1014.7 hPa | 0 mm | - | 476 W/m² | - |
| 1777560130 | 30° C | 67% | 1014.8 hPa | 0 mm | - | 809 W/m² | - |
| 1777559827 | 30° C | 68% | 1014.7 hPa | 0 mm | - | 609 W/m² | - |
| 1777559523 | 30° C | 68% | 1014.7 hPa | 0 mm | - | 546 W/m² | - |
| 1777559220 | 30° C | 68% | 1014.9 hPa | 0 mm | - | 646 W/m² | - |
| 1777558915 | 30° C | 67% | 1014.9 hPa | 0 mm | - | 660 W/m² | - |
| 1777558611 | 30° C | 69% | 1014.8 hPa | 0 mm | - | 818 W/m² | - |
| 1777558307 | 30° C | 69% | 1014.9 hPa | 0 mm | - | 589 W/m² | - |
| 1777558004 | 29.44° C | 70% | 1015 hPa | 0 mm | - | 733 W/m² | - |
| 1777557700 | 30° C | 70% | 1015.1 hPa | 0 mm | - | 527 W/m² | - |
| 1777557397 | 30° C | 70% | 1015.2 hPa | 0 mm | - | 802 W/m² | - |
| 1777557093 | 30° C | 70% | 1015 hPa | 0 mm | - | 701 W/m² | - |
| 1777556788 | 29.44° C | 71% | 1015.1 hPa | 0 mm | - | 833 W/m² | - |
| 1777556485 | 29.44° C | 73% | 1015.3 hPa | 0 mm | - | 634 W/m² | - |
| 1777556185 | 28.89° C | 75% | 1015.1 hPa | 0 mm | - | 488 W/m² | - |
| 1777555881 | 28.89° C | 75% | 1015.2 hPa | 0 mm | - | 504 W/m² | - |
| 1777555577 | 28.89° C | 77% | 1015.2 hPa | 0 mm | - | 485 W/m² | - |
| 1777555274 | 28.33° C | 77% | 1015.3 hPa | 0 mm | - | 401 W/m² | - |
| 1777554970 | 27.78° C | 78% | 1015.4 hPa | 0 mm | - | 419 W/m² | - |
| 1777554667 | 27.78° C | 80% | 1015.3 hPa | 0 mm | - | 314 W/m² | - |
| 1777554364 | 27.78° C | 79% | 1015.2 hPa | 0 mm | - | 256 W/m² | - |
| 1777554060 | 27.78° C | 80% | 1015.2 hPa | 0 mm | - | 276 W/m² | - |
* Rain latest hour (hover to see other rain measurements)
** Current wind speed in m/s (hover to see current wind gust speed)